Location: Chuathbaluk
(61.5726°N, 159.2454°W)
Time: 17:17:17
(UTC+00:00)

N. Korean satellite - Visible Passes

Search period start: 06 December 2021 00:00
Search period end: 16 December 2021 00:00
Orbit: 446 x 495 km, 97.3° (Epoch: 06 December)

Date Brightness Start Highest point End Pass type
(mag) Time Alt. Az. Time Alt. Az. Time Alt. Az.
06 Dec 8.8 03:35:00 10° SSW 03:38:01 27° W 03:41:03 10° NW visible
06 Dec 9.6 14:49:48 10° NE 14:51:39 14° E 14:53:27 10° ESE visible
06 Dec 6.3 16:21:58 10° NNE 16:25:24 87° ESE 16:28:47 10° SSW visible
06 Dec 7.9 17:55:52 10° N 17:58:11 17° NW 18:00:28 10° W visible
07 Dec 7.6 03:05:56 10° S 03:09:20 47° W 03:12:42 10° NNW visible
07 Dec 7.4 15:53:28 10° NNE 15:56:48 47° E 16:00:04 10° S visible
07 Dec 7.4 17:26:57 10° N 17:29:51 26° WNW 17:32:44 10° WSW visible
08 Dec 6.5 02:37:14 10° SSE 02:40:43 86° WSW 02:44:11 10° NNW visible
08 Dec 9.7 04:12:33 10° WSW 04:14:28 14° W 04:16:23 10° NW visible
08 Dec 8.6 15:25:08 10° NE 15:28:04 26° E 15:31:00 10° SSE visible
08 Dec 6.7 16:58:10 10° N 17:01:26 44° WNW 17:04:41 10° SW visible
08 Dec 8.5 18:33:14 10° NNW 18:33:52 10° NW 18:34:29 10° NW visible
09 Dec 9.1 03:42:47 10° SSW 03:45:38 23° W 03:48:28 10° NW visible
09 Dec 9.4 14:57:05 10° NE 14:59:15 16° E 15:01:24 10° SE visible
09 Dec 6.2 16:29:31 10° NNE 16:32:55 80° WNW 16:36:18 10° SSW visible
09 Dec 8.1 18:03:33 10° NNW 18:05:37 15° NW 18:07:42 10° W visible
10 Dec 8.0 03:13:36 10° S 03:16:53 40° W 03:20:10 10° NNW visible
10 Dec 7.0 16:00:57 10° NNE 16:04:19 55° ESE 16:05:27 35° SSE visible
10 Dec 7.5 17:34:32 10° N 17:37:18 23° WNW 17:39:29 13° WSW visible
11 Dec 6.7 02:44:46 10° S 02:48:13 74° WSW 02:51:40 10° NNW visible
11 Dec 9.8 04:20:37 10° WSW 04:22:03 12° W 04:23:30 10° WNW visible
11 Dec 8.3 15:32:32 10° NNE 15:35:36 30° E 15:35:57 30° ESE visible
11 Dec 6.9 17:05:41 10° N 17:08:53 38° WNW 17:10:00 28° WSW visible
12 Dec 6.5 02:16:14 10° SSE 02:19:39 61° ENE 02:23:02 10° NNW visible
12 Dec 9.3 03:50:32 10° SW 03:53:10 20° W 03:55:48 10° NW visible
12 Dec 9.2 15:04:21 10° NE 15:06:38 18° E 15:06:38 18° E visible
12 Dec 6.2 16:36:58 10° NNE 16:40:22 68° WNW 16:40:41 62° WSW visible
12 Dec 8.2 18:11:10 10° NNW 18:12:59 14° NW 18:14:45 10° W visible
13 Dec 8.3 03:21:12 10° SSW 03:24:22 34° W 03:27:32 10° NNW visible
13 Dec 9.9 14:37:01 10° ENE 14:37:25 10° ENE 14:37:25 10° ENE visible
13 Dec 6.8 16:08:21 10° NNE 16:11:28 61° ENE 16:11:28 61° ENE visible
13 Dec 7.7 17:42:03 10° N 17:44:40 21° NW 17:45:31 19° WNW visible
14 Dec 7.0 02:52:15 10° S 02:55:39 63° WSW 02:59:03 10° NNW visible
14 Dec 10.1 04:28:58 10° W 04:29:34 10° W 04:30:10 10° WNW visible
14 Dec 8.2 15:39:52 10° NNE 15:42:18 31° ENE 15:42:18 31° ENE visible
14 Dec 7.0 17:13:09 10° N 17:16:14 33° WNW 17:16:22 33° WNW visible
15 Dec 6.4 02:23:36 10° SSE 02:27:01 71° ENE 02:30:26 10° NNW visible
15 Dec 9.5 03:58:14 10° SW 04:00:37 17° W 04:03:00 10° NW visible
15 Dec 9.2 15:11:34 10° NE 15:13:10 18° ENE 15:13:10 18° ENE visible
15 Dec 6.6 16:44:22 10° N 16:47:14 51° NNW 16:47:14 51° NNW visible
15 Dec 8.3 18:18:46 10° NNW 18:20:17 13° NW 18:21:18 11° WNW visible
